Regional Weather Roundup
Issued by NWS

Current Version | Previous Version | Text Only | Print | Product List | Glossary On
Versions: 1 2 3 4 5 6 7 8 9 10 11 12 13 14 15 16 17 18 19 20 21 22 23 24 25 26 27 28 29 30 31 32 33 34 35 36 37 38 39 40 41 42 43 44 45 46 47 48 49 50
000
ASUS44 KFWD 190515
RWRTX
NORTH TEXAS HOURLY WEATHER ROUNDUP
NATIONAL WEATHER SERVICE FORT WORTH TX
1100 PM CST SAT NOV 18 2017

NOTE: "FAIR" INDICATES FEW OR NO CLOUDS BELOW 12,000 FEET WITH NO
SIGNIFICANT WEATHER AND/OR OBSTRUCTIONS TO VISIBILITY.

TXZ118-119-190600-
DALLAS/FORT WORTH METROPLEX

CITY           SKY/WX    TMP DP  RH WIND       PRES   REMARKS
DFW AIRPORT    PTCLDY    50  36  58 NW7       30.28R
DALLAS LOVE    PTCLDY    50  36  58 NW3       30.30R
FTW MEACHAM    CLEAR     48  36  63 NW5       30.30R
DAL-EXECUTIVE  CLEAR     47  35  63 NW6       30.29R
FTW-ALLIANCE   PTCLDY    46  34  62 NW5       30.30R
FTW-NAS-JRB    CLEAR     48  35  60 W5        30.31S
FTW-SPINKS     CLEAR     47  35  63 NW5       30.32S
ARLINGTON      CLEAR     44  35  70 NW6       30.30R
GRAND PRAIRIE  CLEAR     50  33  51 CALM      30.32R
ADDISON        CLEAR     48  35  61 W3        30.31S
MESQUITE       CLEAR     47  34  60 NW6       30.30R
LANCASTER      CLEAR     48  33  56 NW6       30.31R
$$

TXZ091>094-102>105-117-120-121-131>134-190600-
NORTH CENTRAL TEXAS

CITY           SKY/WX    TMP DP  RH WIND       PRES   REMARKS
SHRMAN/DENISON CLEAR     42  33  72 CALM      30.30R
GAINESVILLE    CLEAR     39  32  75 W6        30.32R WCI  35
BOWIE          CLEAR     41  33  73 W5        30.31S WCI  38
DENTON         CLEAR     40  34  79 NW6       30.30R WCI  36
MCKINNEY       CLEAR     46  35  65 NW3       30.29R
BONHAM         CLEAR    N/A N/A N/A W6        30.28S
GREENVILLE     CLEAR     46  36  66 NW5       30.28S
ROCKWALL       CLEAR     48  37  65 NW3       30.29S
TERRELL        CLEAR     50  34  54 N5        30.29R
WAXAHACHIE     CLEAR     46  36  66 NW5       30.31R
CLEBURNE       CLEAR     45  36  70 N7        30.32S
GRANBURY       CLEAR     46  34  64 W3        30.33S
$$

TXZ083>090-098>101-113>116-127>130-139>142-154-155-190600-
WESTERN NORTH TEXAS

CITY           SKY/WX    TMP DP  RH WIND       PRES   REMARKS
WICHITA FALLS  CLEAR     43  30  60 NW8       30.32R WCI  38
WF-KICKAPOO    CLEAR     45  33  62 N5        30.35R
VERNON         CLEAR     40  20  44 NW5       30.34R WCI  37
ABILENE        CLEAR     42  32  67 CALM      30.34R
ABILENE-DYESS  CLEAR     40  33  75 NW5         N/A  WCI  37
GRAHAM           N/A     36  33  88 CALM      30.31S
BRECKENRIDGE   CLEAR     44  33  65 CALM      30.33S
CISCO          CLEAR     46  34  61 CALM      30.33R
EASTLAND       CLEAR     34  30  86 CALM      30.32S
RANGER         CLEAR     37  32  80 CALM      30.33R
MINERAL WELLS  CLEAR     44  32  62 W3        30.31R
STEPHENVILLE   CLEAR     45  33  62 N5        30.34S
COMANCHE       CLEAR     45  34  65 N3        30.33R
COLEMAN        CLEAR     46  31  55 N5        30.34R
$$

TXZ143>147-156>162-174-175-190600-
CENTRAL TEXAS

CITY           SKY/WX    TMP DP  RH WIND       PRES   REMARKS
WACO           PTCLDY    50  35  56 N9        30.31R
WACO-TSTC      CLEAR     50  37  62 N9        30.31R
WACO-MCGREGOR  CLEAR     52  35  52 N13       30.31R
HILLSBORO      CLEAR     46  36  68 N3        30.30R
CORSICANA      CLEAR     49  37  63 N7        30.30R
MEXIA          CLEAR     49  36  61 NW8       30.28R
HEARNE         CLEAR     53  38  56 N12G21    30.28R
CAMERON        PTCLDY    53  37  55 N10       30.29R
TEMPLE         PTCLDY    51  36  56 N14       30.30R
KILLEEN        PTCLDY    51  35  55 N9        30.29R
KILLEEN-SKYLRK PTCLDY    51  36  56 N12       30.31R
FORT HOOD      PTCLDY    51  35  54 N13       30.27R
GATESVILLE     PTCLDY    50  36  57 N8        30.33R
HAMILTON       CLEAR     46  34  63 NE7       30.32S
LAMPASAS       PTCLDY    50  36  57 N9        30.31R
$$

TXZ095>097-106>112-122>126-135>138-148>153-164>167-190600-
EAST TEXAS

CITY           SKY/WX    TMP DP  RH WIND       PRES   REMARKS
PARIS          CLEAR     44  34  67 NW6       30.27R
SULPHUR SPRNGS CLEAR     48  37  66 NW8       30.29S
MOUNT PLEASANT CLEAR     45  37  72 W5        30.27S
GILMER         CLOUDY    47  35  63 NW3       30.26R
MINEOLA        CLEAR     48  37  66 NW3       30.27R
TYLER          PTCLDY    48  34  58 N5        30.26R
LONGVIEW       NOT AVBL
MARSHALL       CLEAR     47  36  63 N5        30.26R
ATHENS         CLEAR     46  34  61 CALM      30.27R
PALESTINE      CLEAR     50  37  62 N8        30.28R
JACKSONVILLE   CLEAR     49  38  63 N7        30.26S
HENDERSON      PTCLDY    49  37  62 N3        30.26R
CENTER         CLOUDY    49  34  54 NW13G18   30.23R
NACOGDOCHES    CLEAR     51  37  58 N12G18    30.23R
LUFKIN         CLEAR     52  37  56 N10G18    30.22R
$$

SUPPLEMENTAL OBSERVATIONS (NWS FORT WORTH AREA)

CITY           SKY/WX    TMP DP  RH WIND       PRES   REMARKS
DENISON DAM      N/A     48  37  66 W6          N/A
CADDO GRASSLND   N/A     43  32  65 N1          N/A
PAT MAYSE LAKE   N/A     46  32  57 W5          N/A
LBJ GRASSLAND    N/A     41  32  70 NW1         N/A
POSSUM KINGDOM   N/A     45  36  70 W2          N/A
GRANBURY         N/A     45  32  61 W5          N/A
COMANCHE         N/A     45  32  61 N5          N/A
MCGREGOR         N/A     48  34  57 N6          N/A
TEMPLE           N/A     54  34  47 N13G23      N/A
LAKE LIMESTONE   N/A     54  36  50 N12G22      N/A
ATHENS           N/A     48  36  61 NW2         N/A
$$

SUPPLEMENTAL OBSERVATIONS (NWS NORMAN AREA)

CITY           SKY/WX    TMP DP  RH WIND       PRES   REMARKS
GOODLETT         N/A     40  17  40 NW10      30.34S WCI  33
ODELL            N/A     35  26  71 W2        30.35R
CROWELL          N/A     42  19  40 NW7       30.36R WCI  37
KNOX CITY        N/A     35  25  66 W1        30.36R
SEYMOUR          N/A     42  27  56 NW7       30.35R WCI  37
MILLERS CREEK    N/A     39  32  75 SW3         N/A
$$

SUPPLEMENTAL OBSERVATIONS (NWS SAN ANGELO AREA)

CITY           SKY/WX    TMP DP  RH WIND       PRES   REMARKS
WEINERT          N/A     39  26  58 W2        30.36R
HASKELL          N/A     37  26  62 NW7       30.36R WCI  32
THROCKMORTON     N/A     41  35  78 W3        30.36R
STAMFORD         N/A     39  32  75 NW7       30.37R WCI  34
CLYDE            N/A     43  31  60 NE3       30.35R
HAMBY            N/A     37  32  81 S1          N/A
IVIE RESERVOIR   N/A     48  32  53 NE6         N/A
COLORADO BEND    N/A     48  30  49 N7G16       N/A
$$

SUPPLEMENTAL OBSERVATIONS (NWS SHREVEPORT AREA)

CITY           SKY/WX    TMP DP  RH WIND       PRES   REMARKS
CLARKSVILLE      N/A     43  32  65 NW3         N/A
TEXARKANA        N/A     43  37  81 CALM        N/A
LINDEN           N/A     48  34  57 NW5         N/A
CADDO LAKE       N/A     43  37  81 CALM        N/A
GILMER           N/A     48  36  61 NW2         N/A
HENDERSON        N/A     48  36  61 N5          N/A
LUFKIN           N/A     54  37  54 MISG        N/A
S SABINE NF      N/A     54  37  54 NW5G21      N/A
$$

SUPPLEMENTAL OBSERVATIONS ARE A COLLECTION OF AUTOMATED INSTRUMENTS
THAT ARE MAINTAINED BY A VARIETY OF FEDERAL AND STATE AGENCIES.
CERTAIN ELEMENTS...SUCH AS HUMIDITY VALUES AND SUSTAINED WIND
SPEEDS...MAY BE APPROXIMATED.





USA.gov is the U.S. government's official web portal to all federal, state and local government web resources and services.